Location: Unspecified
(0.0000°N, 0.0000°E)
Time: 17:27:09
(UTC+00:00)

Vanguard 3 - All Passes

Search period start: 01 May 2016 00:00
Search period end: 11 May 2016 00:00
Orbit: 509 x 3267 km, 33.3° (Epoch: 30 April)

Date Brightness Start Highest point End Pass type
(mag) Time Alt. Az. Time Alt. Az. Time Alt. Az.
01 May - 06:44:02 10° NW 06:48:14 34° NNE 06:51:38 10° E daylight
01 May - 08:57:29 10° WSW 08:59:43 15° SSW 09:02:06 10° S daylight
01 May - 15:40:09 10° S 15:48:59 21° SSE 16:00:35 10° ESE daylight
01 May - 17:50:22 10° SW 18:05:40 58° SE 18:25:13 10° ENE visible
01 May - 20:04:33 10° WSW 20:23:07 67° NW 20:41:44 10° NE visible
01 May - 22:25:41 10° W 22:41:19 28° NNW 22:54:10 10° NNE visible
02 May - 05:31:08 10° NNW 05:34:42 17° NNE 05:37:34 10° ENE visible
02 May - 07:42:48 10° WNW 07:46:43 44° SW 07:50:15 10° SE daylight
02 May - 14:32:31 10° SSE 14:33:04 10° SSE 14:33:37 10° SSE daylight
02 May - 16:37:15 10° SSW 16:49:35 38° SE 17:06:43 10° E daylight
02 May - 18:49:18 10° SW 19:06:16 90° SE 19:26:22 10° NE visible
02 May - 21:06:28 10° W 21:24:18 42° NNW 21:40:37 10° NNE visible
02 May - 23:33:27 10° WNW 23:43:29 17° NNW 23:51:50 10° NNE visible
03 May - 04:18:44 10° N 04:20:26 11° NNE 04:21:58 10° NNE visible
03 May - 06:28:54 10° NW 06:33:54 55° NNE 06:37:35 10° ESE daylight
03 May - 15:25:12 10° SSW 15:33:58 23° SE 15:45:56 10° E daylight
03 May - 17:35:17 10° SW 17:49:51 65° SE 18:09:42 10° ENE daylight
03 May - 19:49:31 10° WSW 20:07:13 60° NW 20:26:08 10° NE visible
03 May - 22:11:10 10° WNW 22:26:07 26° NNW 22:38:57 10° NNE visible
04 May - 00:44:45 10° NNW 00:46:27 10° NNW 00:48:04 10° N visible
04 May - 05:15:11 10° NNW 05:20:29 25° NNE 05:24:13 10° E visible
04 May - 07:28:29 10° W 07:32:17 29° SW 07:35:32 10° SSE daylight
04 May - 14:16:21 10° SSE 14:18:31 11° SSE 14:20:53 10° SE daylight
04 May - 16:22:15 10° SSW 16:34:04 43° SE 16:51:24 10° ENE daylight
04 May - 18:34:16 10° WSW 18:50:21 82° NW 19:10:40 10° NE visible
04 May - 20:51:44 10° W 21:08:42 38° NNW 21:25:06 10° NNE visible
04 May - 23:19:08 10° NW 23:28:52 16° NNW 23:37:08 10° NNE visible
05 May - 04:01:20 10° NNW 04:06:16 17° NNE 04:09:59 10° ENE visible
05 May - 06:13:50 10° NW 06:19:31 86° NE 06:23:24 10° SE daylight
05 May - 15:10:16 10° SSW 15:18:52 25° SE 15:31:06 10° E daylight
05 May - 17:20:17 10° SW 17:34:04 73° SE 17:53:59 10° ENE daylight
05 May - 19:34:42 10° WSW 19:51:27 53° NNW 20:10:24 10° NE visible
05 May - 21:56:48 10° WNW 22:11:03 24° NNW 22:23:44 10° NNE visible
06 May - 00:28:05 10° NNW 00:32:15 11° N 00:35:58 10° N visible
06 May - 02:46:56 10° NNW 02:51:14 13° N 02:54:44 10° NE visible
06 May - 04:59:26 10° NW 05:06:12 38° NNE 05:10:31 10° E visible
06 May - 07:14:16 10° W 07:17:46 21° SW 07:20:42 10° SSE daylight
06 May - 14:00:50 10° SSE 14:03:54 11° SE 14:07:24 10° SE daylight
06 May - 16:07:20 10° SSW 16:18:33 48° SE 16:35:54 10° ENE daylight
06 May - 18:19:25 10° WSW 18:34:33 73° NW 18:54:48 10° NE visible
06 May - 20:37:13 10° W 20:53:17 34° NNW 21:09:30 10° NNE visible
06 May - 23:04:45 10° NW 23:14:21 15° NNW 23:22:39 10° NNE visible
07 May - 01:30:55 10° NNW 01:35:11 12° N 01:38:51 10° NNE visible
07 May - 03:44:52 10° NNW 03:52:02 24° NNE 03:56:51 10° ENE visible
07 May - 05:58:49 10° WNW 06:05:02 65° SW 06:09:05 10° SE daylight
07 May - 14:55:22 10° SSW 15:03:43 27° SE 15:16:07 10° E daylight
07 May - 17:05:27 10° SW 17:18:21 81° SE 17:38:07 10° ENE daylight
07 May - 19:20:03 10° W 19:35:50 47° NNW 19:54:32 10° NE visible
07 May - 21:42:37 10° WNW 21:56:07 22° NNW 22:08:32 10° NNE visible
08 May - 00:11:47 10° NNW 00:18:02 13° N 00:23:24 10° NNE visible
08 May - 02:29:47 10° NNW 02:37:01 18° NNE 02:42:17 10° NE visible
08 May - 04:43:45 10° NW 04:51:48 54° NNE 04:56:35 10° ESE visible
08 May - 07:00:14 10° WSW 07:03:11 16° SW 07:05:41 10° S daylight
08 May - 13:45:31 10° SSE 13:49:12 13° SE 13:53:35 10° ESE daylight
08 May - 15:52:31 10° SW 16:03:03 54° SE 16:20:15 10° ENE daylight
08 May - 18:04:44 10° WSW 18:18:54 65° NW 18:38:45 10° NE visible
08 May - 20:22:55 10° W 20:38:01 30° NNW 20:53:50 10° NNE visible
08 May - 22:50:09 10° NW 22:59:55 15° N 23:08:25 10° NNE visible
09 May - 01:13:36 10° NNW 01:20:59 15° N 01:26:45 10° NE visible
09 May - 03:28:37 10° NW 03:37:43 32° NNE 03:43:19 10° E visible
09 May - 05:43:49 10° WNW 05:50:27 47° SW 05:54:41 10° SE daylight
09 May - 14:40:32 10° SSW 14:48:33 31° SE 15:00:59 10° E daylight
09 May - 16:50:45 10° SW 17:02:47 89° NNW 17:22:06 10° NE daylight
09 May - 19:05:37 10° W 19:20:22 41° NNW 19:38:33 10° NE visible
09 May - 21:28:32 10° WNW 21:41:20 20° NNW 21:53:25 10° NNE visible
09 May - 23:55:32 10° NNW 00:03:47 15° N 00:10:37 10° NNE visible
10 May - 02:13:04 10° NNW 02:22:42 24° NNE 02:29:09 10° ENE visible
10 May - 04:28:07 10° NW 04:37:18 75° NNE 04:42:30 10° ESE visible
10 May - 06:46:33 10° WSW 06:48:34 12° SW 06:50:21 10° SSW daylight
10 May - 13:30:20 10° S 13:34:25 14° SE 13:39:33 10° ESE daylight
10 May - 15:37:47 10° SW 15:47:39 61° SE 16:04:28 10° ENE daylight
10 May - 17:50:12 10° WSW 18:03:24 56° NNW 18:22:36 10° NE visible
10 May - 20:08:50 10° WNW 20:22:55 27° NNW 20:38:08 10° NNE visible
10 May - 22:35:21 10° NW 22:45:30 16° N 22:54:25 10° NNE visible
